N0JVW-13 Weather Reports


time (UTC)temp
C
wind
direction
speed
KPH
gust
KPH
rain 1hr
cm
rain 24hr
cm
rain mn
cm
humidity
%
barometer
mb
20260505164045 7 1 0.0 4.8 0.08 1.19 1.19 1 1012.1
20260505163521 7 31 1.6 6.4 0.08 1.19 1.19 1 1011.9
20260505163101 7 17 1.6 6.4 0.08 1.19 1.19 1 1012.0
20260505162536 7 359 0.0 8.0 0.08 1.19 1.19 1 1012.0
20260505162013 7 8 1.6 8.0 0.08 1.19 1.19 1 1012.0
20260505161601 7 333 0.0 8.0 0.08 1.19 1.19 1 1011.8
20260505161032 7 9 3.2 8.0 0.05 1.17 1.17 1 1011.7
20260505160505 7 353 1.6 8.0 0.05 1.17 1.17 1 1011.7
20260505153042 8 327 4.8 11.3 0.08 1.12 1.12 1 1011.0
20260505152510 8 18 1.6 11.3 0.10 1.12 1.12 1 1011.2
20260505152049 8 359 3.2 8.0 0.13 1.12 1.12 1 1011.4
20260505151529 8 336 3.2 8.0 0.13 1.12 1.12 1 1011.2
20260505151001 8 352 0.0 6.4 0.13 1.12 1.12 1 1011.2
20260505150542 8 313 0.0 6.4 0.15 1.12 1.12 1 1011.2
20260505140518 7 353 0.0 9.7 0.08 0.97 0.97 1 1011.3
20260505124519 8 11 1.6 8.0 0.00 0.86 0.86 1 1008.6
20260505124059 8 27 0.0 6.4 0.00 0.86 0.86 1 1008.5
20260505123535 8 38 1.6 6.4 0.00 0.86 0.86 1 1009.1
20260505123011 8 343 0.0 6.4 0.00 0.86 0.86 1 1009.0
20260505122552 8 330 1.6 6.4 0.00 0.86 0.86 1 1008.9
20260505122026 8 333 1.6 6.4 0.00 0.86 0.86 1 1008.7
20260505121502 8 326 0.0 8.0 0.00 0.86 0.86 1 1008.7
20260505121042 8 355 0.0 8.0 0.00 0.86 0.86 1 1008.6
20260505120521 8 14 1.6 6.4 0.00 0.86 0.86 1 1008.5
20260505120059 8 339 1.6 3.2 0.00 0.86 0.86 1 1008.3
20260505115535 8 2 0.0 3.2 0.00 0.86 0.86 1 1008.5
20260505115011 8 338 0.0 3.2 0.00 0.86 0.86 1 1008.8
20260505114611 8 354 0.0 3.2 0.00 0.86 0.86 1 1008.7
20260505114028 8 357 0.0 1.6 0.00 0.86 0.86 1 1008.5
20260505113504 8 357 0.0 6.4 0.00 0.86 0.86 1 1008.3
20260505113045 8 357 0.0 6.4 0.00 0.86 0.86 1 1008.0
20260505112520 8 338 1.6 6.4 0.00 0.86 0.86 1 1008.0
20260505112008 8 350 1.6 8.0 0.00 0.86 0.86 1 1007.8
20260505111601 8 326 0.0 12.9 0.00 0.86 0.86 1 1007.8
20260505111022 8 1 0.0 12.9 0.00 0.86 0.86 1 1007.8
20260505110604 8 333 1.6 9.7 0.00 0.86 0.86 1 1007.9
20260505102041 8 38 4.8 11.3 0.00 0.86 0.86 1 1008.0
20260505101518 8 348 4.8 9.7 0.00 0.86 0.86 1 1008.0
20260505101059 8 353 3.2 8.0 0.00 0.86 0.86 1 1007.8
20260505100535 8 328 3.2 8.0 0.00 0.86 0.86 1 1007.9
20260505100011 8 27 1.6 9.7 0.00 0.86 0.86 1 1007.8
20260505095552 8 346 3.2 11.3 0.00 0.86 0.86 1 1007.7
20260505095027 8 32 4.8 11.3 0.00 0.86 0.86 1 1007.5
20260505094502 8 340 3.2 9.7 0.00 0.86 0.86 1 1007.5
20260505094045 8 333 1.6 8.0 0.00 0.86 0.86 1 1007.5
20260505093520 8 341 1.6 9.7 0.00 0.86 0.86 1 1007.2
20260505093101 8 2 1.6 9.7 0.03 0.86 0.86 1 1007.1
20260505092537 8 339 1.6 9.7 0.13 0.86 0.86 1 1007.0
20260505092013 8 354 3.2 11.3 0.18 0.86 0.86 1 1007.3
20260505091554 8 29 1.6 11.3 0.23 0.86 0.86 1 1007.3
20260505091029 8 20 0.0 12.9 0.28 0.86 0.86 1 1007.0
20260505090506 8 10 3.2 12.9 0.30 0.86 0.86 1 1006.5
20260505090053 8 346 1.6 12.9 0.33 0.86 0.86 1 1006.2
20260505085526 8 22 6.4 19.3 0.38 0.86 0.86 1 1005.4
20260505085001 8 360 4.8 24.1 0.38 0.86 0.86 1 1004.3
20260505084542 8 331 6.4 24.1 0.41 0.86 0.86 1 1003.7
20260505084018 8 326 6.4 14.5 0.41 0.86 0.86 1 1003.4
20260505083559 8 305 6.4 14.5 0.43 0.86 0.86 1 1004.4
20260505083044 8 326 1.6 8.0 0.43 0.84 0.84 1 1006.5
20260505082510 9 18 0.0 4.8 0.33 0.71 0.71 1 1007.7
20260505082051 9 319 1.6 4.8 0.28 0.69 0.69 1 1007.8
20260505081533 9 337 0.0 3.2 0.20 0.61 0.61 1 1007.5
20260505081009 10 318 0.0 0.0 0.20 0.58 0.58 1 1008.1
20260505080546 10 318 0.0 0.0 0.18 0.56 0.56 1 1008.5
20260505080033 10 318 0.0 0.0 0.15 0.51 0.51 1 1008.8
20260505075602 10 318 0.0 0.0 0.15 0.48 0.48 1 1008.9
20260505075037 10 318 0.0 1.6 0.20 0.48 0.48 1 1008.5
20260505074513 10 318 0.0 1.6 0.20 0.46 0.46 1 1008.1
20260505074054 10 318 0.0 6.4 0.20 0.46 0.46 1 1007.4
20260505073531 10 34 0.0 6.4 0.18 0.43 0.43 1 1006.8
20260505073006 10 354 0.0 1.6 0.15 0.41 0.41 1 1006.4
20260505072546 11 354 0.0 0.0 0.15 0.41 0.41 1 1006.4
20260505072022 11 354 0.0 1.6 0.15 0.41 0.41 1 1006.4
20260505071605 11 354 0.0 3.2 0.15 0.41 0.41 1 1006.3
20260505071038 11 351 0.0 12.9 0.13 0.38 0.38 1 1006.3
20260505070515 11 28 3.2 12.9 0.13 0.38 0.38 1 1005.9
20260505070055 11 19 0.0 8.0 0.10 0.36 0.36 1 1006.0
20260505065530 12 19 1.6 9.7 0.13 0.33 0.33 1 1006.1
20260505065005 12 34 0.0 9.7 0.18 0.28 0.28 1 1005.2
20260505064557 12 354 0.0 1.6 0.25 0.25 0.25 1 1004.9
20260505064022 12 323 0.0 3.2 0.25 0.25 0.25 1 1004.9
20260505063603 12 323 0.0 4.8 0.25 0.25 0.25 1 1004.8
20260505063046 13 15 0.0 4.8 0.25 0.25 0.25 1 1004.5
20260505062515 13 9 0.0 9.7 0.25 0.25 0.25 9 1004.4
20260505062054 13 347 1.6 9.7 0.25 0.25 0.25 62 1004.1
20260505061539 13 348 3.2 6.4 0.25 0.25 0.25 62 1004.1
20260505061009 13 10 3.2 11.3 0.25 0.25 0.25 78 1004.2
20260505060549 14 6 3.2 11.3 0.25 0.25 0.25 77 1004.0
20260505060028 15 12 3.2 11.3 0.23 0.23 0.23 76 1003.9
20260505055502 16 356 4.8 16.1 0.20 0.20 0.20 71 1003.5
20260505055043 17 24 4.8 16.1 0.10 0.10 0.10 65 1003.5
20260505054521 18 9 6.4 17.7 0.00 0.00 0.00 58 1003.7
20260505054100 19 34 4.8 12.9 0.00 0.00 0.00 56 1004.0
20260505053535 20 32 3.2 11.3 0.00 0.00 0.00 55 1003.7
20260505053011 20 24 1.6 19.3 0.00 0.00 0.00 56 1003.4
20260505052551 20 66 8.0 19.3 0.00 0.00 0.00 60 1003.0
20260505052027 20 21 0.0 6.4 0.00 0.00 0.00 68 1002.7
20260505051503 20 6 0.0 6.4 0.00 0.00 0.00 71 1002.5
20260505051042 20 357 0.0 6.4 0.00 0.00 0.00 71 1002.3
20260505050521 20 16 0.0 6.4 0.00 0.00 0.00 72 1002.3
20260505041546 21 157 0.0 4.8 0.00 0.00 0.00 70 1001.8
20260505041014 21 139 0.0 6.4 0.00 0.00 0.00 70 1002.0
20260505040555 21 171 0.0 6.4 0.00 0.00 0.00 70 1002.0
20260505040031 21 156 0.0 6.4 0.00 0.00 0.00 70 1002.1
20260505035507 21 164 1.6 6.4 0.00 0.00 0.00 70 1002.1
20260505035052 21 148 0.0 4.8 0.00 0.00 0.00 70 1002.2
20260505034523 21 153 0.0 4.8 0.00 0.00 0.00 70 1002.2
20260505034104 21 163 0.0 3.2 0.00 0.00 0.00 70 1002.1
20260505033540 21 158 0.0 3.2 0.00 0.00 0.00 70 1002.2
20260505033018 21 167 0.0 3.2 0.00 0.00 0.00 70 1002.2
20260505032602 21 199 0.0 3.2 0.00 0.00 0.00 71 1002.2
20260505032033 21 168 0.0 4.8 0.00 0.00 0.00 71 1002.1
20260505031510 21 154 0.0 4.8 0.00 0.00 0.00 71 1002.1
20260505031054 21 160 0.0 4.8 0.00 0.00 0.00 71 1002.1
20260505030527 21 160 0.0 3.2 0.00 0.00 0.00 70 1002.0
20260505030003 22 145 0.0 1.6 0.00 0.00 0.00 70 1002.0
20260505025543 22 160 0.0 0.0 0.00 0.00 0.00 70 1002.0
20260505025021 22 160 0.0 3.2 0.00 0.00 0.00 69 1001.9
20260505024601 22 163 0.0 3.2 0.00 0.00 0.00 69 1001.8
20260505024037 22 145 0.0 1.6 0.00 0.00 0.00 68 1001.8
20260505023513 22 117 0.0 1.6 0.00 0.00 0.00 67 1001.7
20260505023101 22 111 0.0 1.6 0.00 0.00 0.00 66 1001.6
20260505022532 22 165 0.0 0.0 0.00 0.00 0.00 66 1001.5
20260505022006 22 165 0.0 0.0 0.00 0.00 0.00 66 1001.4
20260505021548 22 165 0.0 0.0 0.00 0.00 0.00 65 1001.3
20260505021023 22 165 0.0 0.0 0.00 0.00 0.00 65 1001.3
20260505020604 22 165 0.0 0.0 0.00 0.00 0.00 65 1001.2
20260505020039 22 165 0.0 0.0 0.00 0.00 0.00 65 1001.1
20260505015515 22 165 0.0 0.0 0.00 0.00 0.00 65 1001.0
20260505015056 22 165 0.0 0.0 0.00 0.00 0.00 64 1000.9
20260505014537 22 165 0.0 0.0 0.00 0.00 0.00 64 1000.8
20260505014008 22 165 0.0 0.0 0.00 0.00 0.00 63 1000.8
20260505013548 22 165 0.0 0.0 0.00 0.00 0.00 63 1000.7
20260505013029 22 165 0.0 0.0 0.00 0.00 0.00 62 1000.6
20260505012502 22 165 0.0 0.0 0.00 0.00 0.00 61 1000.6
20260505012042 23 165 0.0 0.0 0.00 0.00 0.00 60 1000.5
20260505011517 23 165 0.0 0.0 0.00 0.00 0.00 60 1000.4
20260505011058 23 165 0.0 0.0 0.00 0.00 0.00 59 1000.3
20260505010532 23 165 0.0 0.0 0.00 0.00 0.00 58 1000.3
20260505010009 23 165 0.0 0.0 0.00 0.00 0.00 58 1000.2
20260505005550 23 165 0.0 0.0 0.00 0.00 0.00 57 1000.1
20260505005028 24 165 0.0 0.0 0.00 0.00 0.00 57 1000.1
20260505004504 24 165 0.0 0.0 0.00 0.00 0.00 57 1000.1
20260505004044 24 165 0.0 0.0 0.00 0.00 0.00 56 1000.0
20260505003525 25 165 0.0 0.0 0.00 0.00 0.00 56 1000.0
20260505003102 25 165 0.0 0.0 0.00 0.00 0.00 55 999.9
20260505002541 25 165 0.0 0.0 0.00 0.00 0.00 55 999.9
20260505002014 25 165 0.0 0.0 0.00 0.00 0.00 54 999.9
20260505001557 25 165 0.0 0.0 0.00 0.00 0.00 53 999.9
20260505001032 25 295 0.0 0.0 0.00 0.00 0.00 52 999.9
20260505000505 25 295 0.0 1.6 0.00 0.00 0.00 51 999.9
20260505000054 25 295 0.0 1.6 0.00 0.00 0.00 51 999.9
20260504235523 26 295 0.0 1.6 0.00 0.00 0.00 50 999.8
20260504235105 26 295 0.0 1.6 0.00 0.00 0.00 49 999.8
20260504234546 26 295 0.0 4.8 0.00 0.00 0.00 48 999.8
20260504234017 26 153 0.0 1.6 0.00 0.00 0.00 51 999.8
20260504233557 26 136 0.0 3.2 0.00 0.00 0.00 50 999.9
20260504233035 26 168 0.0 3.2 0.00 0.00 0.00 50 999.8
20260504232511 26 307 0.0 3.2 0.00 0.00 0.00 49 999.8
20260504232051 27 319 0.0 4.8 0.00 0.00 0.00 47 999.8
20260504231535 26 117 0.0 4.8 0.00 0.00 0.00 47 999.9
20260504231003 26 117 0.0 1.6 0.00 0.00 0.00 48 999.9
20260504230545 26 117 0.0 1.6 0.00 0.00 0.00 48 1000.0
20260504230021 26 117 0.0 1.6 0.00 0.00 0.00 48 1000.0
20260504225602 26 117 0.0 1.6 0.00 0.00 0.00 49 1000.0
20260504225037 26 117 0.0 1.6 0.00 0.00 0.00 49 1000.0
20260504224517 26 117 0.0 0.0 0.00 0.00 0.00 49 1000.0
20260504224058 26 117 0.0 0.0 0.00 0.00 0.00 49 1000.0
20260504223534 26 117 0.0 1.6 0.00 0.00 0.00 48 1000.0
20260504223008 26 117 0.0 3.2 0.00 0.00 0.00 48 1000.0
20260504222548 26 117 0.0 3.2 0.00 0.00 0.00 47 1000.0
20260504222025 26 117 0.0 3.2 0.00 0.00 0.00 47 1000.1
20260504221610 26 117 0.0 3.2 0.00 0.00 0.00 46 1000.2
20260504221040 26 334 0.0 3.2 0.00 0.00 0.00 46 1000.2
20260504220516 26 298 0.0 3.2 0.00 0.00 0.00 46 1000.1
20260504220057 26 283 0.0 3.2 0.00 0.00 0.00 45 1000.2
20260504215534 26 275 0.0 3.2 0.00 0.00 0.00 46 1000.2
20260504215009 26 275 0.0 3.2 0.00 0.00 0.00 46 1000.2
20260504214549 26 280 0.0 3.2 0.00 0.00 0.00 45 1000.3
20260504214028 26 264 0.0 3.2 0.00 0.00 0.00 45 1000.3
20260504213503 27 131 0.0 4.8 0.00 0.00 0.00 45 1000.3
20260504213043 27 118 0.0 6.4 0.00 0.00 0.00 45 1000.3
20260504212519 27 176 0.0 9.7 0.00 0.00 0.00 45 1000.4
20260504212100 27 210 0.0 9.7 0.00 0.00 0.00 46 1000.3
20260504211544 27 203 0.0 8.0 0.00 0.00 0.00 45 1000.4
20260504211012 27 218 1.6 8.0 0.00 0.00 0.00 46 1000.3
20260504210553 27 126 1.6 8.0 0.00 0.00 0.00 45 1000.4
20260504210047 27 129 1.6 6.4 0.00 0.00 0.00 44 1000.4
20260504205506 27 146 0.0 3.2 0.00 0.00 0.00 46 1000.4
20260504205047 27 224 0.0 4.8 0.00 0.00 0.00 46 1000.4
20260504204524 27 274 0.0 3.2 0.00 0.00 0.00 44 1000.4
20260504204108 27 174 0.0 3.2 0.00 0.00 0.00 45 1000.5
20260504203541 27 269 0.0 3.2 0.00 0.00 0.00 45 1000.6
20260504203023 27 181 0.0 3.2 0.00 0.00 0.00 46 1000.7
20260504202559 27 283 0.0 3.2 0.00 0.00 0.00 46 1000.8
20260504202036 26 172 0.0 4.8 0.00 0.00 0.00 47 1000.9
20260504201511 26 321 0.0 6.4 0.00 0.00 0.00 47 1000.8
20260504201054 26 278 0.0 6.4 0.00 0.00 0.00 45 1000.7
20260504200529 26 167 0.0 6.4 0.00 0.00 0.00 47 1000.8
20260504200012 26 295 0.0 4.8 0.00 0.00 0.00 45 1000.9
20260504195554 26 274 0.0 4.8 0.00 0.00 0.00 45 1000.9
20260504195029 26 158 0.0 4.8 0.00 0.00 0.00 46 1000.9
20260504194508 26 159 0.0 4.8 0.00 0.00 0.00 46 1000.9
20260504194043 26 252 0.0 3.2 0.00 0.00 0.00 46 1000.9
20260504193518 26 284 0.0 6.4 0.00 0.00 0.00 48 1000.9
20260504193100 26 269 0.0 6.4 0.00 0.00 0.00 46 1001.1
20260504192535 26 270 1.6 6.4 0.00 0.00 0.00 46 1001.1
20260504192012 26 293 0.0 4.8 0.00 0.00 0.00 49 1001.1
20260504191554 25 250 0.0 4.8 0.00 0.00 0.00 47 1001.0
20260504191029 25 277 1.6 4.8 0.00 0.00 0.00 47 1001.0
20260504190505 25 297 0.0 6.4 0.00 0.00 0.00 49 1001.2
20260504190103 25 169 0.0 6.4 0.00 0.00 0.00 50 1001.1
20260504185525 25 177 0.0 6.4 0.00 0.00 0.00 49 1001.2
20260504185103 25 148 0.0 6.4 0.00 0.00 0.00 46 1001.2
20260504184541 25 281 1.6 9.7 0.00 0.00 0.00 47 1001.3
20260504184014 25 195 0.0 9.7 0.00 0.00 0.00 49 1001.4
20260504183555 25 150 0.0 6.4 0.00 0.00 0.00 51 1001.3
20260504183031 25 144 0.0 6.4 0.00 0.00 0.00 51 1001.4
20260504182509 25 112 0.0 8.0 0.00 0.00 0.00 51 1001.4
20260504182048 25 153 3.2 8.0 0.00 0.00 0.00 50 1001.3
20260504181525 25 195 0.0 6.4 0.00 0.00 0.00 48 1001.4
20260504181106 25 127 1.6 4.8 0.00 0.00 0.00 52 1001.4
20260504180541 25 173 0.0 8.0 0.00 0.00 0.00 50 1001.5
20260504180020 25 183 0.0 8.0 0.00 0.00 0.00 49 1001.6
20260504175557 25 198 0.0 8.0 0.00 0.00 0.00 49 1001.5
20260504175036 25 157 0.0 4.8 0.00 0.00 0.00 49 1001.6
20260504174509 24 319 0.0 4.8 0.00 0.00 0.00 53 1001.7
20260504174052 24 51 0.0 3.2 0.00 0.00 0.00 52 1001.8
20260504173526 24 93 0.0 6.4 0.00 0.00 0.00 51 1001.9
20260504173008 24 93 1.6 8.0 0.00 0.00 0.00 50 1001.9
20260504172544 24 157 0.0 8.0 0.00 0.00 0.00 53 1001.9
20260504172020 23 314 0.0 6.4 0.00 0.00 0.00 52 1002.0
20260504171602 23 302 1.6 4.8 0.00 0.00 0.00 49 1002.0
20260504171036 23 259 0.0 3.2 0.00 0.00 0.00 52 1002.0
20260504170513 23 173 0.0 4.8 0.00 0.00 0.00 53 1002.0